Location: Dealu Mare
(46.0500°N, 22.8167°E)
Time: 22:56:01
(UTC+00:00)

Timation 1 Rocket - Pass Details

Date: 15 January 2026
Orbit: 895 x 908 km, 70.0° (Epoch: 13 February)

Event Time Altitude Azimuth Distance (km) Brightness Sun altitude
Exits shadow 04:08:04 20° 331° (NNW) 1,966 5.8 -20.1°
Maximum altitude 04:12:22 87° 245° (WSW) 914 4.3 -19.4°
Drops below altitude 10° 04:18:22 10° 156° (SSE) 2,584 7.2 -18.4°
Sets 04:20:51 0° 156° (SSE) 3,522 8.0 -17.9°
